User: anonymous   Login
Location: ?ern� Novina
(50.6762°N, 14.8696°E)
Time: 17:14:59
(UTC+00:00)
Language:

Cosmos 2360 Rocket - Orbit

View from above orbital plane
View from above orbital plane
View from above satellite
View from above satellite

Ground track
Ground track

The orbit data is extracted from the following two-line orbital elements,

1 25407U 98045B   21125.93295922  .00000107  00000-0  78461-4 0  9994
2 25407  71.0107 299.8587 0008587 215.4142 144.6412 14.15839664176723
Epoch (UTC): 05 May 2021 22:23:27
Eccentricity: 0.0008587
inclination: 71.0107°
perigee height: 833 km
apogee height: 845 km
right ascension of ascending node: 299.8587°
argument of perigee: 215.4142°
revolutions per day: 14.15839664
mean anomaly at epoch: 144.6412°
orbit number at epoch: 17672

The dashed part of the orbit path shows where the satellite is in the earth's shadow,  

DLR